Find OneWeb SL0027

NORAD ID: 45432 Int'l Des: 2020-020 Owner: ONEWEB Country: UK Constellation: oneweb operational
LEOCIRCULARPOLARONEWEB_TYPE

リアルタイム位置

3D地球を読み込み中...

OneWeb SL0027について

説明を読み込み中...

次回通過

Passes for default location (London). Set your location on the main map for personalized predictions.

高度履歴

Loading altitude history...

軌道要素

1 45432U 20020J 26124.64257616 .00000016 00000-0 68229-5 0 9993
2 45432 87.9184 14.5016 0001435 76.7780 283.3511 13.17649855300625
Epoch: May 4, 2026 • Age: 21 hours

現在のステータス

高度 1198.2 km
速度 7.25 km/s
衛星直下点 -6.98°S, 144.98°E
打ち上げ日 Mar 21, 2020
運用期間 6.1 years
タイプ internet

技術仕様

分類 Payload
質量 148.00 kg
乾燥質量 140.00 kg
総質量 148.00 kg
長さ 1.30 m
直径 1.00 m
スパン 5.00 m
形状 Trapezoid+2 pan
製造者 ONEWUS
バスタイプ ARROW
フェーズステータス In Orbit
所有者/国 ONEWEB/UK

Most Searched